Find Starlink 31900

NORAD ID: 59942 Int'l Des: 2024-106 Owner: SPXS Country: US Constellation: starlink operational
LEOCIRCULAR

实时位置

正在加载3D地球...

关于 Starlink 31900

正在加载描述...

即将过境

Passes for default location (London). Set your location on the main map for personalized predictions.

高度历史

Loading altitude history...

两行轨道根数

1 59942U 24106W 26125.03377038 .00003507 00000-0 13698-3 0 9994
2 59942 43.0038 14.0017 0001328 274.4526 85.6174 15.27566499109146
Epoch: May 5, 2026 • Age: 14 hours

当前状态

高度 495.3 km
速度 7.62 km/s
星下点 -42.61°S, 150.11°W
发射日期 Jun 1, 2024
运行时间 1.9 years
类型 internet

技术详情

分类 Payload
质量 730.00 kg
干质量 700.00 kg
总质量 730.00 kg
长度 0.30 m
直径 4.10 m
跨度 29.00 m
形状 Box + pan
制造商 SPXS
平台类型 Starlink V2M
阶段状态 In Orbit
所有者/国家 SPXS/US

Most Searched